THEMIS E

Last updated on Sat Dec 13 2025 00:02:40 GMT+0000 (Coordinated Universal Time)

1 30798U 07004E 25346.26639906 -.00000354 00000+0 00000+0 0 9990 2 30798 2.6298 104.8755 8393857 186.9924 278.5853 0.87837831 64270
UTC large
Height (km)
Speed (km/s)
/
Latitude / Longitude
Inclination (degrees)
Orbital Period (minutes)
Azimuth
Elevation
Range (km)
Doppler Factor

Next 0 passes for location: London (51.5072 / 0.1276)

Sorry there are no passes over London.